Wind_Speed
7 4 12 8 4 3 8 10 6 4 2 5 6 5 5 15 11 11 13 8 8 8 8 10 12 12 16 19 20 20 18 17 22 25 26 25 27 13 17 19 20 18 22 23
4 7 6 8 6 2 5 8 5 1 5 3 5 6 7 8 11 19 16 14 11 11 12 12 15 18 22 23 20 18 16 17 18 20 21 26 26 28 30 25 28 19 19 21
6 5 10 7 4 4 2 7 6 4 4 3 6 4 5 5 6 11 14 16 13 15 14 15 17 19 22 22 20 18 14 12 13 14 14 16 18 22 25 27 23 22 22 23
5 4 13 9 7 6 4 5 5 8 5 4 3 4 5 6 8 6 14 17 16 18 18 18 21 20 20 18 16 16 15 15 14 10 10 12 13 15 16 15 16 17 18 21
6 8 12 8 7 8 5 6 6 3 4 4 1 3 6 3 7 9 11 17 18 20 23 22 20 20 18 17 16 13 10 9 7 7 8 9 8 5 4 7 9 10 12 16
5 6 9 8 10 11 6 6 6 5 3 1 6 5 4 5 6 5 12 22 22 19 25 25 23 24 21 17 14 12 9 6 5 5 3 3 1 4 3 5 7 10 11 11
3 4 4 11 9 4 6 7 2 1 1 5 4 4 7 6 3 5 9 11 10 17 23 27 29 26 24 20 15 13 10 9 5 2 3 5 8 9 9 11 11 11 12 13
5 3 8 6 9 8 6 8 5 4 4 2 4 5 6 2 2 5 8 13 10 22 29 34 35 32 27 20 17 17 15 12 7 5 6 7 8 9 12 14 14 16 19 20
4 2 3 9 5 8 4 5 8 6 3 4 3 5 5 4 5 11 13 8 18 28 37 39 40 33 29 25 23 20 17 14 12 10 9 8 10 10 11 13 19 21 21 23
5 6 7 4 7 2 9 6 4 3 4 3 4 3 5 3 5 8 8 9 15 26 38 43 39 35 30 27 24 21 16 13 12 9 5 7 9 10 10 14 17 20 23 25
2 4 1 6 6 8 3 3 5 5 4 5 1 5 5 6 3 7 10 8 19 29 37 43 38 34 30 27 24 20 17 14 12 7 2 2 6 10 11 12 16 18 20 23
3 4 3 4 0 5 7 9 7 5 4 0 4 6 3 5 6 6 6 12 21 28 37 41 36 31 30 27 24 20 17 14 11 8 5 5 5 6 8 11 15 18 21 24
6 1 3 5 5 4 4 4 5 6 3 5 6 5 2 3 3 7 3 18 26 32 35 34 32 30 27 25 22 19 16 14 11 8 6 4 6 8 11 14 18 21 23 25
10 3 6 5 6 4 4 4 4 6 4 5 6 4 4 2 4 9 12 16 25 31 30 30 29 27 24 20 18 16 16 13 9 6 4 7 10 13 16 19 21 20 21 23
5 5 3 2 2 3 2 8 8 6 5 7 7 9 8 9 8 9 17 21 24 22 21 20 20 19 18 16 14 12 10 9 9 8 9 12 15 17 18 19 20 22 24 27
3 2 3 5 3 4 5 6 9 4 4 1 6 2 3 10 17 12 26 25 30 27 24 21 19 18 16 15 13 12 10 9 9 11 13 17 18 18 19 21 24 27 30 32
4 6 3 3 2 2 4 4 5 5 5 4 3 2 6 5 12 12 24 29 30 29 25 23 19 17 13 10 6 5 7 9 12 14 15 17 19 21 24 28 31 34 37 41
6 6 3 4 3 2 3 4 6 13 4 1 6 7 12 18 22 20 15 21 17 18 18 18 13 9 6 2 3 5 8 11 13 15 19 23 26 29 32 36 39 43 43 41
3 5 4 5 3 1 2 3 4 3 2 2 9 14 23 30 35 21 18 21 22 18 17 16 11 6 2 2 5 7 10 14 18 22 26 29 33 37 40 41 41 38 36 32
6 4 4 3 5 7 6 3 10 5 2 5 12 15 21 9 4 2 19 21 21 17 14 10 6 1 4 8 11 15 18 22 26 29 32 34 36 36 36 34 31 29 27 24
3 3 5 3 3 5 3 4 5 6 5 18 19 13 10 5 10 22 19 18 14 12 8 5 4 8 13 17 20 23 25 26 28 29 30 31 31 30 27 26 23 22 20 18
5 5 2 3 4 2 4 1 6 7 22 25 20 21 32 36 30 23 17 14 10 5 4 6 10 13 16 19 22 23 24 25 26 27 27 26 24 22 21 20 18 16 16 18
2 4 6 3 3 5 3 1 13 29 34 24 26 28 34 32 25 18 14 9 5 4 7 9 12 14 16 18 21 23 23 24 24 23 22 19 17 16 15 16 16 16 17 19
2 3 4 3 6 6 16 24 27 33 32 29 31 32 27 28 20 16 10 6 4 5 8 10 13 14 16 18 19 19 20 21 20 20 18 17 17 16 15 15 16 18 17 19
2 4 5 5 4 17 18 27 34 33 32 31 26 22 19 17 15 10 8 5 5 7 9 11 13 15 17 18 18 18 19 19 19 19 18 17 17 18 17 16 17 18 16 16
2 5 4 4 17 15 11 27 32 33 29 26 23 21 16 10 11 8 8 8 8 10 11 12 14 15 17 19 20 21 21 20 20 19 19 19 19 19 19 21 22 17 16 14
Wind_Direction
179 142 194 165 154 117 122 150 115 159 170 123 180 195 185 195 201 204 166 188 194 211 207 213 212 198 201 201 210 223 235 239 251 261 248 254 257 281 297 312 311 295 291 288
95 219 178 139 145 182 113 147 172 58 189 153 138 214 248 166 194 192 203 193 202 201 209 215 218 210 203 205 211 220 235 236 254 252 259 254 267 281 295 293 295 293 287 290
139 201 158 143 163 158 75 129 154 139 144 61 117 307 248 261 215 192 206 216 207 201 213 218 215 209 207 205 210 222 228 241 244 246 256 267 275 285 294 288 282 276 277 278
177 165 157 161 172 134 138 189 139 129 108 194 160 251 244 242 257 227 225 221 217 200 202 214 210 213 207 208 219 229 230 233 245 266 269 274 281 298 309 308 298 291 280 276
229 144 159 157 179 139 192 169 164 144 123 122 145 133 262 211 244 256 257 234 221 207 194 196 206 204 202 210 218 219 220 229 250 271 286 304 311 315 301 303 314 325 319 302
187 168 154 186 153 168 158 112 47 54 97 215 214 144 268 194 199 231 244 253 248 206 194 192 197 203 201 195 190 180 188 205 249 279 318 340 19 89 68 54 32 26 21 18
148 172 190 138 139 133 126 94 64 27 207 216 168 116 231 259 217 243 271 280 245 215 201 187 191 185 181 175 176 182 196 190 182 135 94 73 68 59 49 39 25 9 358 355
149 165 155 174 158 158 162 144 150 157 139 200 165 226 248 216 146 320 297 262 235 194 191 185 180 175 177 173 175 177 171 150 146 143 106 72 45 17 10 12 11 8 6 359
139 205 132 160 133 134 177 139 188 97 24 73 226 309 319 350 333 0 333 248 205 191 183 178 172 177 172 170 173 163 156 152 148 132 98 47 21 6 6 11 7 2 0 359
192 114 153 176 100 71 152 164 91 11 111 175 275 259 235 312 323 323 309 246 206 183 176 175 173 172 168 170 165 166 161 150 145 135 92 36 18 10 357 348 342 343 341 337
118 91 50 111 166 156 86 123 62 115 128 165 169 266 215 207 260 279 284 226 187 175 175 172 169 168 167 166 170 168 167 168 161 155 148 320 331 332 329 324 325 329 329 330
203 119 117 177 7 170 159 166 140 125 217 12 151 261 224 231 269 262 217 183 179 173 173 170 168 169 169 172 172 173 178 185 180 185 211 252 266 286 298 305 312 316 320 324
184 48 50 11 3 27 138 146 119 111 89 191 142 256 166 268 43 29 150 167 168 173 171 167 169 171 174 172 176 184 192 195 196 203 215 252 273 278 292 302 308 312 316 318
131 119 147 165 199 144 132 145 151 129 119 181 209 183 250 187 79 50 48 150 159 161 163 167 171 174 174 175 184 194 198 196 205 219 236 259 275 289 295 297 300 302 306 306
113 144 95 37 114 112 149 141 160 164 183 150 206 182 187 187 169 104 72 107 128 135 155 164 173 168 172 181 185 181 180 195 210 235 263 278 283 285 289 291 292 297 299 302
21 113 92 33 7 13 74 104 114 96 122 349 116 152 98 109 108 96 90 89 96 110 119 129 139 143 142 145 159 173 189 217 247 270 277 277 278 283 286 291 295 298 300 302
104 126 92 161 22 124 58 271 120 98 64 121 178 213 138 104 92 96 105 106 105 108 109 111 110 117 125 136 154 217 243 265 274 275 275 281 288 293 294 296 297 299 300 302
127 100 82 126 88 151 265 292 144 108 68 118 90 82 94 102 86 98 119 125 116 121 123 121 119 108 114 144 236 263 273 273 274 282 286 289 291 294 295 298 300 301 304 307
84 114 91 128 122 84 47 226 161 142 347 337 129 121 117 110 95 56 103 121 121 119 108 106 109 105 103 271 276 283 289 294 293 291 291 294 298 299 300 302 304 308 309 312
91 89 110 139 134 195 221 213 157 128 315 168 149 143 146 140 95 120 111 113 113 108 101 98 97 63 298 292 300 302 301 298 298 297 298 301 303 305 306 309 313 314 317 320
106 36 124 111 122 288 209 175 174 140 233 147 141 129 113 88 127 134 125 112 104 97 89 59 357 320 314 311 308 307 306 305 306 308 310 309 309 311 314 317 319 322 327 331
156 128 149 95 98 207 21 110 169 156 123 140 137 124 113 121 129 131 123 113 106 85 28 332 317 312 313 315 316 316 317 317 316 314 313 315 318 320 321 322 327 329 329 333
145 177 146 149 194 312 271 217 136 142 137 136 133 134 137 133 130 128 117 103 72 10 344 338 333 330 328 328 327 325 325 324 323 324 326 327 326 327 330 335 335 335 332 332
98 117 91 119 354 30 95 120 129 140 131 136 136 138 139 132 133 127 121 105 65 16 353 345 342 341 343 343 341 338 336 335 337 337 339 340 342 346 346 342 340 336 335 332
112 69 117 82 97 93 82 117 128 125 127 126 127 130 129 132 127 125 115 91 54 31 15 8 6 5 3 1 0 357 353 349 350 351 351 351 353 351 347 345 344 343 344 342
28 149 159 167 171 119 125 129 132 128 129 131 134 126 118 120 121 117 102 82 63 40 31 19 15 13 15 15 12 10 4 359 356 357 358 358 355 353 352 350 351 358 348 344
Height
1451 1457 1454 1457 1461 1460 1467 1472 1475 1477 1472 1476 1485 1483 1481 1483 1485 1485 1489 1489 1490 1492 1493 1494 1495 1496 1498 1500 1503 1506 1510 1514 1517 1518 1519 1522 1523 1523 1525 1526 1527 1528 1531 1530
1455 1457 1455 1456 1459 1461 1465 1473 1477 1472 1471 1477 1485 1485 1480 1484 1484 1484 1485 1489 1490 1491 1492 1492 1493 1495 1496 1498 1502 1505 1509 1513 1513 1514 1515 1516 1518 1518 1520 1519 1524 1524 1523 1524
1453 1450 1452 1455 1461 1465 1469 1474 1476 1476 1474 1477 1482 1489 1483 1478 1479 1482 1483 1484 1487 1488 1489 1491 1492 1493 1495 1496 1499 1503 1506 1509 1510 1510 1511 1512 1513 1515 1517 1519 1519 1519 1519 1520
1447 1444 1449 1456 1461 1464 1473 1467 1468 1472 1482 1496 1480 1507 1486 1480 1477 1476 1478 1480 1483 1485 1487 1489 1491 1493 1495 1496 1499 1501 1502 1504 1507 1508 1509 1511 1512 1514 1516 1516 1515 1515 1516 1515
1444 1444 1449 1455 1456 1460 1469 1466 1469 1469 1481 1485 1486 1500 1489 1479 1479 1475 1472 1474 1478 1482 1483 1487 1490 1492 1494 1496 1498 1500 1502 1504 1506 1507 1509 1510 1511 1513 1514 1514 1514 1514 1512 1511
1437 1437 1444 1445 1450 1455 1459 1466 1474 1482 1488 1502 1488 1492 1492 1485 1475 1470 1466 1466 1471 1477 1480 1483 1486 1489 1492 1495 1498 1500 1503 1505 1507 1508 1509 1510 1512 1513 1514 1515 1513 1513 1513 1512
1437 1440 1439 1441 1452 1455 1459 1474 1502 1502 1503 1505 1486 1492 1485 1467 1465 1466 1464 1465 1467 1472 1475 1476 1481 1486 1491 1495 1498 1501 1503 1506 1509 1510 1511 1512 1514 1515 1515 1513 1513 1513 1513 1512
1446 1451 1437 1436 1445 1456 1462 1469 1492 1492 1502 1494 1484 1488 1476 1463 1462 1461 1459 1460 1462 1466 1469 1473 1478 1483 1488 1493 1499 1502 1505 1507 1510 1511 1513 1514 1514 1514 1513 1513 1513 1513 1513 1511
1438 1434 1429 1431 1436 1443 1460 1468 1463 1482 1485 1491 1487 1475 1466 1462 1461 1458 1457 1456 1456 1459 1463 1469 1475 1482 1488 1493 1498 1502 1504 1506 1509 1511 1513 1515 1515 1514 1514 1513 1513 1511 1509 1508
1425 1435 1427 1430 1432 1440 1445 1451 1473 1486 1496 1498 1490 1483 1479 1465 1464 1460 1457 1454 1456 1460 1463 1469 1475 1482 1487 1493 1498 1501 1504 1506 1508 1509 1511 1512 1513 1513 1513 1512 1511 1510 1508 1506
1419 1429 1431 1428 1436 1445 1451 1458 1467 1472 1482 1495 1500 1489 1465 1464 1462 1462 1456 1452 1455 1459 1464 1469 1478 1484 1488 1494 1498 1501 1504 1507 1508 1509 1509 1509 1511 1510 1509 1509 1508 1507 1505 1503
1420 1434 1440 1431 1426 1428 1434 1448 1456 1483 1480 1482 1485 1485 1458 1460 1459 1457 1452 1451 1455 1461 1467 1471 1479 1487 1492 1497 1501 1504 1507 1509 1509 1509 1508 1508 1508 1508 1507 1505 1505 1504 1503 1500
1420 1437 1450 1442 1437 1431 1435 1442 1449 1460 1469 1477 1489 1480 1460 1460 1460 1457 1455 1452 1453 1460 1468 1477 1484 1489 1494 1498 1502 1506 1507 1509 1509 1508 1507 1507 1506 1505 1504 1503 1501 1500 1497 1495
1412 1435 1440 1452 1439 1437 1440 1439 1443 1451 1478 1474 1470 1463 1460 1460 1461 1460 1459 1455 1456 1461 1471 1478 1484 1488 1495 1499 1502 1504 1506 1507 1507 1507 1505 1504 1503 1502 1500 1498 1496 1495 1492 1488
1414 1431 1431 1433 1431 1431 1434 1438 1442 1445 1450 1458 1453 1456 1456 1457 1462 1462 1460 1460 1461 1469 1476 1482 1488 1492 1495 1499 1501 1504 1506 1505 1504 1503 1502 1501 1500 1497 1495 1493 1492 1489 1486 1482
1420 1437 1432 1440 1434 1437 1438 1439 1443 1446 1449 1451 1449 1451 1450 1458 1460 1464 1462 1465 1467 1474 1478 1484 1489 1492 1495 1498 1500 1501 1500 1502 1501 1500 1498 1498 1495 1492 1490 1488 1486 1483 1479 1475
1422 1433 1442 1449 1440 1440 1446 1442 1438 1445 1449 1449 1453 1447 1451 1458 1464 1467 1465 1470 1474 1477 1481 1483 1488 1491 1495 1497 1498 1499 1499 1498 1497 1496 1494 1492 1489 1487 1485 1483 1480 1476 1471 1467
1425 1434 1445 1452 1447 1456 1441 1438 1436 1444 1451 1449 1451 1454 1457 1461 1467 1471 1473 1473 1477 1481 1483 1483 1486 1489 1493 1495 1496 1498 1495 1495 1493 1490 1489 1487 1485 1482 1479 1475 1471 1466 1460 1455
1420 1430 1449 1455 1459 1446 1445 1442 1441 1438 1456 1452 1452 1456 1460 1463 1466 1478 1479 1479 1480 1484 1483 1482 1486 1490 1493 1495 1496 1495 1492 1490 1488 1487 1485 1482 1478 1474 1470 1465 1460 1455 1449 1445
1422 1426 1437 1455 1449 1455 1441 1435 1434 1436 1457 1451 1451 1453 1455 1459 1476 1486 1484 1483 1484 1484 1485 1487 1490 1491 1493 1495 1493 1490 1488 1487 1484 1481 1478 1474 1469 1464 1460 1455 1450 1446 1442 1439
1429 1433 1439 1452 1459 1445 1432 1432 1434 1448 1452 1447 1452 1457 1458 1463 1470 1481 1484 1484 1485 1485 1488 1489 1490 1491 1491 1490 1489 1486 1483 1480 1477 1472 1469 1465 1460 1456 1452 1448 1445 1441 1437 1435
1422 1434 1448 1450 1450 1445 1431 1431 1436 1437 1441 1447 1454 1459 1463 1468 1476 1481 1485 1486 1488 1489 1490 1490 1491 1491 1489 1487 1483 1480 1477 1473 1470 1466 1463 1459 1455 1451 1447 1443 1440 1437 1434 1431
1424 1422 1432 1439 1439 1436 1432 1432 1431 1435 1437 1450 1456 1463 1464 1471 1477 1482 1485 1487 1488 1489 1490 1490 1489 1488 1485 1482 1478 1474 1471 1468 1465 1462 1458 1455 1451 1448 1444 1440 1437 1434 1431 1427
1419 1419 1429 1435 1442 1439 1436 1436 1438 1442 1445 1453 1459 1466 1471 1473 1480 1483 1486 1488 1489 1490 1489 1489 1487 1484 1482 1479 1475 1472 1469 1466 1462 1458 1455 1451 1447 1444 1441 1438 1434 1431 1427 1423
1419 1421 1433 1444 1445 1443 1443 1442 1443 1449 1453 1459 1466 1471 1475 1477 1481 1484 1486 1488 1489 1489 1488 1486 1485 1482 1479 1476 1473 1470 1467 1463 1460 1456 1452 1449 1444 1440 1437 1434 1431 1427 1424 1420
1419 1423 1429 1436 1437 1436 1447 1450 1451 1454 1461 1466 1469 1474 1478 1481 1483 1486 1486 1487 1488 1488 1487 1485 1483 1481 1478 1475 1472 1469 1465 1461 1458 1454 1450 1446 1442 1438 1434 1429 1426 1425 1421 1418